Year,Month,Day,Hour,Minute,Value (Times are PST for temperature in C)
2015,10,10,00,00,17.30
2015,10,10,00,01,17.30
2015,10,10,00,02,17.30
2015,10,10,00,03,17.30
2015,10,10,00,04,17.30
2015,10,10,00,05,17.30
2015,10,10,00,06,17.30
2015,10,10,00,07,17.20
2015,10,10,00,08,17.20
2015,10,10,00,09,17.20
2015,10,10,00,10,17.20
2015,10,10,00,11,17.30
2015,10,10,00,12,17.30
2015,10,10,00,13,17.30
2015,10,10,00,14,17.30
2015,10,10,00,15,17.30
2015,10,10,00,16,17.30
2015,10,10,00,17,17.30
2015,10,10,00,18,17.30
2015,10,10,00,19,17.30
2015,10,10,00,20,17.30
2015,10,10,00,21,17.30
2015,10,10,00,22,17.30
2015,10,10,00,23,17.30
2015,10,10,00,24,17.30
2015,10,10,00,25,17.40
2015,10,10,00,26,17.40
2015,10,10,00,27,17.40
2015,10,10,00,28,17.30
2015,10,10,00,29,17.30
2015,10,10,00,30,17.30
2015,10,10,00,31,17.30
2015,10,10,00,32,17.30
2015,10,10,00,33,17.20
2015,10,10,00,34,17.20
2015,10,10,00,35,17.20
2015,10,10,00,36,17.10
2015,10,10,00,37,17.10
2015,10,10,00,38,17.10
2015,10,10,00,39,17.10
2015,10,10,00,40,17.10
2015,10,10,00,41,17.00
2015,10,10,00,42,17.00
2015,10,10,00,43,17.00
2015,10,10,00,44,16.90
2015,10,10,00,45,16.90
2015,10,10,00,46,16.90
2015,10,10,00,47,16.90
2015,10,10,00,48,16.80
2015,10,10,00,49,16.80
2015,10,10,00,50,16.80
2015,10,10,00,51,16.80
2015,10,10,00,52,16.80
2015,10,10,00,53,16.70
2015,10,10,00,54,16.70
2015,10,10,00,55,16.70
2015,10,10,00,56,16.70
2015,10,10,00,57,16.70
2015,10,10,00,58,16.70
2015,10,10,00,59,16.70
2015,10,10,01,00,16.70
2015,10,10,01,01,16.70
2015,10,10,01,02,16.70
2015,10,10,01,03,16.70
2015,10,10,01,04,16.70
2015,10,10,01,05,16.80
2015,10,10,01,06,16.80
2015,10,10,01,07,16.80
2015,10,10,01,08,16.90
2015,10,10,01,09,16.90
2015,10,10,01,10,16.90
2015,10,10,01,11,17.00
2015,10,10,01,12,17.10
2015,10,10,01,13,17.10
2015,10,10,01,14,17.20
2015,10,10,01,15,17.20
2015,10,10,01,16,17.20
2015,10,10,01,17,17.30
2015,10,10,01,18,17.30
2015,10,10,01,19,17.30
2015,10,10,01,20,17.30
2015,10,10,01,21,17.30
2015,10,10,01,22,17.30
2015,10,10,01,23,17.30
2015,10,10,01,24,17.40
2015,10,10,01,25,17.40
2015,10,10,01,26,17.40
2015,10,10,01,27,17.40
2015,10,10,01,28,17.40
2015,10,10,01,29,17.40
2015,10,10,01,30,17.40
2015,10,10,01,31,17.40
2015,10,10,01,32,17.40
2015,10,10,01,33,17.40
2015,10,10,01,34,17.40
2015,10,10,01,35,17.50
2015,10,10,01,36,17.50
2015,10,10,01,37,17.50
2015,10,10,01,38,17.60
2015,10,10,01,39,17.60
2015,10,10,01,40,17.50
2015,10,10,01,41,17.50
2015,10,10,01,42,17.50
2015,10,10,01,43,17.60
2015,10,10,01,44,17.60
2015,10,10,01,45,17.60
2015,10,10,01,46,17.60
2015,10,10,01,47,17.60
2015,10,10,01,48,17.60
2015,10,10,01,49,17.60
2015,10,10,01,50,17.70
2015,10,10,01,51,17.70
2015,10,10,01,52,17.70
2015,10,10,01,53,17.70
2015,10,10,01,54,17.70
2015,10,10,01,55,17.70
2015,10,10,01,56,17.70
2015,10,10,01,57,17.70
2015,10,10,01,58,17.80
2015,10,10,01,59,17.80
2015,10,10,02,00,17.80
2015,10,10,02,01,17.80
2015,10,10,02,02,17.80
2015,10,10,02,03,17.80
2015,10,10,02,04,17.80
2015,10,10,02,05,17.80
2015,10,10,02,06,17.80
2015,10,10,02,07,17.80
2015,10,10,02,08,17.80
2015,10,10,02,09,17.80
2015,10,10,02,10,17.80
2015,10,10,02,11,17.80
2015,10,10,02,12,17.80
2015,10,10,02,13,17.80
2015,10,10,02,14,17.80
2015,10,10,02,15,17.80
2015,10,10,02,16,17.80
2015,10,10,02,17,17.80
2015,10,10,02,18,17.80
2015,10,10,02,19,17.80
2015,10,10,02,20,17.80
2015,10,10,02,21,17.80
2015,10,10,02,22,17.80
2015,10,10,02,23,17.80
2015,10,10,02,24,17.80
2015,10,10,02,25,17.70
2015,10,10,02,26,17.70
2015,10,10,02,27,17.70
2015,10,10,02,28,17.70
2015,10,10,02,29,17.80
2015,10,10,02,30,17.80
2015,10,10,02,31,17.80
2015,10,10,02,32,17.80
2015,10,10,02,33,17.80
2015,10,10,02,34,17.80
2015,10,10,02,35,17.80
2015,10,10,02,36,17.80
2015,10,10,02,37,17.80
2015,10,10,02,38,17.70
2015,10,10,02,39,17.70
2015,10,10,02,40,17.70
2015,10,10,02,41,17.70
2015,10,10,02,42,17.60
2015,10,10,02,43,17.60
2015,10,10,02,44,17.60
2015,10,10,02,45,17.60
2015,10,10,02,46,17.60
2015,10,10,02,47,17.60
2015,10,10,02,48,17.60
2015,10,10,02,49,17.60
2015,10,10,02,50,17.60
2015,10,10,02,51,17.60
2015,10,10,02,52,17.60
2015,10,10,02,53,17.50
2015,10,10,02,54,17.50
2015,10,10,02,55,17.50
2015,10,10,02,56,17.50
2015,10,10,02,57,17.50
2015,10,10,02,58,17.50
2015,10,10,02,59,17.50
2015,10,10,03,00,17.50
2015,10,10,03,01,17.50
2015,10,10,03,02,17.40
2015,10,10,03,03,17.40
2015,10,10,03,04,17.40
2015,10,10,03,05,17.40
2015,10,10,03,06,17.50
2015,10,10,03,07,17.50
2015,10,10,03,08,17.60
2015,10,10,03,09,17.60
2015,10,10,03,10,17.70
2015,10,10,03,11,17.70
2015,10,10,03,12,17.70
2015,10,10,03,13,17.70
2015,10,10,03,14,17.80
2015,10,10,03,15,17.80
2015,10,10,03,16,17.80
2015,10,10,03,17,17.80
2015,10,10,03,18,17.80
2015,10,10,03,19,17.90
2015,10,10,03,20,17.90
2015,10,10,03,21,17.90
2015,10,10,03,22,17.90
2015,10,10,03,23,18.00
2015,10,10,03,24,18.00
2015,10,10,03,25,18.00
2015,10,10,03,26,18.10
2015,10,10,03,27,18.10
2015,10,10,03,28,18.20
2015,10,10,03,29,18.20
2015,10,10,03,30,18.30
2015,10,10,03,31,18.30
2015,10,10,03,32,18.30
2015,10,10,03,33,18.40
2015,10,10,03,34,18.40
2015,10,10,03,35,18.40
2015,10,10,03,36,18.40
2015,10,10,03,37,18.50
2015,10,10,03,38,18.50
2015,10,10,03,39,18.60
2015,10,10,03,40,18.60
2015,10,10,03,41,18.60
2015,10,10,03,42,18.60
2015,10,10,03,43,18.60
2015,10,10,03,44,18.60
2015,10,10,03,45,18.60
2015,10,10,03,46,18.60
2015,10,10,03,47,18.60
2015,10,10,03,48,18.60
2015,10,10,03,49,18.60
2015,10,10,03,50,18.60
2015,10,10,03,51,18.60
2015,10,10,03,52,18.60
2015,10,10,03,53,18.60
2015,10,10,03,54,18.60
2015,10,10,03,55,18.60
2015,10,10,03,56,18.60
2015,10,10,03,57,18.60
2015,10,10,03,58,18.60
2015,10,10,03,59,18.60
2015,10,10,04,00,18.60
2015,10,10,04,01,18.60
2015,10,10,04,02,18.60
2015,10,10,04,03,18.50
2015,10,10,04,04,18.50
2015,10,10,04,05,18.40
2015,10,10,04,06,18.30
2015,10,10,04,07,18.20
2015,10,10,04,08,18.20
2015,10,10,04,09,18.20
2015,10,10,04,10,18.20
2015,10,10,04,11,18.20
2015,10,10,04,12,18.20
2015,10,10,04,13,18.20
2015,10,10,04,14,18.30
2015,10,10,04,15,18.30
2015,10,10,04,16,18.40
2015,10,10,04,17,18.40
2015,10,10,04,18,18.50
2015,10,10,04,19,18.50
2015,10,10,04,20,18.60
2015,10,10,04,21,18.60
2015,10,10,04,22,18.70
2015,10,10,04,23,18.70
2015,10,10,04,24,18.80
2015,10,10,04,25,18.80
2015,10,10,04,26,18.80
2015,10,10,04,27,18.70
2015,10,10,04,28,18.70
2015,10,10,04,29,18.70
2015,10,10,04,30,18.60
2015,10,10,04,31,18.60
2015,10,10,04,32,18.60
2015,10,10,04,33,18.50
2015,10,10,04,34,18.50
2015,10,10,04,35,18.40
2015,10,10,04,36,18.40
2015,10,10,04,37,18.40
2015,10,10,04,38,18.40
2015,10,10,04,39,18.40
2015,10,10,04,40,18.40
2015,10,10,04,41,18.40
2015,10,10,04,42,18.40
2015,10,10,04,43,18.40
2015,10,10,04,44,18.50
2015,10,10,04,45,18.60
2015,10,10,04,46,18.70
2015,10,10,04,47,18.70
2015,10,10,04,48,18.70
2015,10,10,04,49,18.60
2015,10,10,04,50,18.60
2015,10,10,04,51,18.60
2015,10,10,04,52,18.60
2015,10,10,04,53,18.60
2015,10,10,04,54,18.60
2015,10,10,04,55,18.60
2015,10,10,04,56,18.50
2015,10,10,04,57,18.50
2015,10,10,04,58,18.50
2015,10,10,04,59,18.50
2015,10,10,05,00,18.40
2015,10,10,05,01,18.40
2015,10,10,05,02,18.30
2015,10,10,05,03,18.30
2015,10,10,05,04,18.20
2015,10,10,05,05,18.10
2015,10,10,05,06,18.00
2015,10,10,05,07,17.80
2015,10,10,05,08,17.80
2015,10,10,05,09,17.70
2015,10,10,05,10,17.60
2015,10,10,05,11,17.60
2015,10,10,05,12,17.50
2015,10,10,05,13,17.50
2015,10,10,05,14,17.50
2015,10,10,05,15,17.50
2015,10,10,05,16,17.40
2015,10,10,05,17,17.30
2015,10,10,05,18,17.30
2015,10,10,05,19,17.20
2015,10,10,05,20,17.20
2015,10,10,05,21,17.10
2015,10,10,05,22,17.10
2015,10,10,05,23,17.10
2015,10,10,05,24,17.10
2015,10,10,05,25,17.00
2015,10,10,05,26,17.00
2015,10,10,05,27,17.00
2015,10,10,05,28,17.00
2015,10,10,05,29,17.10
2015,10,10,05,30,17.10
2015,10,10,05,31,17.10
2015,10,10,05,32,17.10
2015,10,10,05,33,17.00
2015,10,10,05,34,17.00
2015,10,10,05,35,16.90
2015,10,10,05,36,16.90
2015,10,10,05,37,16.80
2015,10,10,05,38,16.80
2015,10,10,05,39,16.80
2015,10,10,05,40,16.80
2015,10,10,05,41,16.80
2015,10,10,05,42,16.80
2015,10,10,05,43,16.70
2015,10,10,05,44,16.70
2015,10,10,05,45,16.70
2015,10,10,05,46,16.60
2015,10,10,05,47,16.60
2015,10,10,05,48,16.60
2015,10,10,05,49,16.60
2015,10,10,05,50,16.70
2015,10,10,05,51,16.80
2015,10,10,05,52,16.90
2015,10,10,05,53,17.00
2015,10,10,05,54,17.10
2015,10,10,05,55,17.10
2015,10,10,05,56,17.20
2015,10,10,05,57,17.20
2015,10,10,05,58,17.30
2015,10,10,05,59,17.30
2015,10,10,06,00,17.30
2015,10,10,06,01,17.40
2015,10,10,06,02,17.40
2015,10,10,06,03,17.40
2015,10,10,06,04,17.40
2015,10,10,06,05,17.40
2015,10,10,06,06,17.50
2015,10,10,06,07,17.50
2015,10,10,06,08,17.60
2015,10,10,06,09,17.70
2015,10,10,06,10,17.80
2015,10,10,06,11,17.80
2015,10,10,06,12,17.90
2015,10,10,06,13,17.90
2015,10,10,06,14,18.00
2015,10,10,06,15,18.10
2015,10,10,06,16,18.20
2015,10,10,06,17,18.30
2015,10,10,06,18,18.40
2015,10,10,06,19,18.60
2015,10,10,06,20,18.70
2015,10,10,06,21,18.80
2015,10,10,06,22,18.90
2015,10,10,06,23,18.90
2015,10,10,06,24,18.90
2015,10,10,06,25,18.90
2015,10,10,06,26,19.00
2015,10,10,06,27,19.00
2015,10,10,06,28,19.00
2015,10,10,06,29,19.10
2015,10,10,06,30,19.10
2015,10,10,06,31,19.10
2015,10,10,06,32,19.10
2015,10,10,06,33,19.10
2015,10,10,06,34,19.10
2015,10,10,06,35,19.10
2015,10,10,06,36,19.10
2015,10,10,06,37,19.00
2015,10,10,06,38,18.90
2015,10,10,06,39,18.80
2015,10,10,06,40,18.70
2015,10,10,06,41,18.50
2015,10,10,06,42,18.30
2015,10,10,06,43,18.10
2015,10,10,06,44,17.90
2015,10,10,06,45,17.80
2015,10,10,06,46,17.60
2015,10,10,06,47,17.50
2015,10,10,06,48,17.50
2015,10,10,06,49,17.40
2015,10,10,06,50,17.30
2015,10,10,06,51,17.20
2015,10,10,06,52,17.20
2015,10,10,06,53,17.20
2015,10,10,06,54,17.20
2015,10,10,06,55,17.30
2015,10,10,06,56,17.30
2015,10,10,06,57,17.30
2015,10,10,06,58,17.40
2015,10,10,06,59,17.70
2015,10,10,07,00,17.90
2015,10,10,07,01,18.10
2015,10,10,07,02,18.10
2015,10,10,07,03,18.10
2015,10,10,07,04,18.00
2015,10,10,07,05,17.90
2015,10,10,07,06,17.70
2015,10,10,07,07,17.60
2015,10,10,07,08,17.50
2015,10,10,07,09,17.40
2015,10,10,07,10,17.30
2015,10,10,07,11,17.30
2015,10,10,07,12,17.20
2015,10,10,07,13,17.20
2015,10,10,07,14,17.10
2015,10,10,07,15,17.10
2015,10,10,07,16,17.10
2015,10,10,07,17,17.10
2015,10,10,07,18,17.10
2015,10,10,07,19,17.10
2015,10,10,07,20,17.00
2015,10,10,07,21,17.00
2015,10,10,07,22,16.90
2015,10,10,07,23,16.80
2015,10,10,07,24,16.80
2015,10,10,07,25,16.70
2015,10,10,07,26,16.70
2015,10,10,07,27,16.70
2015,10,10,07,28,16.70
2015,10,10,07,29,16.70
2015,10,10,07,30,16.70
2015,10,10,07,31,16.60
2015,10,10,07,32,16.60
2015,10,10,07,33,16.50
2015,10,10,07,34,16.40
2015,10,10,07,35,16.40
2015,10,10,07,36,16.30
2015,10,10,07,37,16.30
2015,10,10,07,38,16.20
2015,10,10,07,39,16.20
2015,10,10,07,40,16.20
2015,10,10,07,41,16.10
2015,10,10,07,42,16.10
2015,10,10,07,43,16.00
2015,10,10,07,44,16.00
2015,10,10,07,45,16.00
2015,10,10,07,46,15.90
2015,10,10,07,47,15.90
2015,10,10,07,48,15.80
2015,10,10,07,49,15.80
2015,10,10,07,50,15.80
2015,10,10,07,51,15.80
2015,10,10,07,52,15.70
2015,10,10,07,53,15.70
2015,10,10,07,54,15.70
2015,10,10,07,55,15.70
2015,10,10,07,56,15.70
2015,10,10,07,57,15.70
2015,10,10,07,58,15.70
2015,10,10,07,59,15.70
2015,10,10,08,00,15.70
2015,10,10,08,01,15.60
2015,10,10,08,02,15.60
2015,10,10,08,03,15.60
2015,10,10,08,04,15.70
2015,10,10,08,05,15.70
2015,10,10,08,06,15.70
2015,10,10,08,07,15.80
2015,10,10,08,08,15.90
2015,10,10,08,09,16.00
2015,10,10,08,10,16.10
2015,10,10,08,11,16.20
2015,10,10,08,12,16.30
2015,10,10,08,13,16.40
2015,10,10,08,14,16.60
2015,10,10,08,15,16.70
2015,10,10,08,16,16.90
2015,10,10,08,17,17.00
2015,10,10,08,18,17.10
2015,10,10,08,19,17.20
2015,10,10,08,20,17.30
2015,10,10,08,21,17.40
2015,10,10,08,22,17.50
2015,10,10,08,23,17.60
2015,10,10,08,24,17.70
2015,10,10,08,25,17.70
2015,10,10,08,26,17.70
2015,10,10,08,27,17.80
2015,10,10,08,28,17.80
2015,10,10,08,29,17.90
2015,10,10,08,30,17.90
2015,10,10,08,31,17.90
2015,10,10,08,32,17.90
2015,10,10,08,33,17.90
2015,10,10,08,34,17.90
2015,10,10,08,35,18.00
2015,10,10,08,36,18.00
2015,10,10,08,37,18.00
2015,10,10,08,38,18.00
2015,10,10,08,39,18.10
2015,10,10,08,40,18.10
2015,10,10,08,41,18.10
2015,10,10,08,42,18.10
2015,10,10,08,43,18.10
2015,10,10,08,44,18.10
2015,10,10,08,45,18.10
2015,10,10,08,46,18.10
2015,10,10,08,47,18.20
2015,10,10,08,48,18.20
2015,10,10,08,49,18.20
2015,10,10,08,50,18.20
2015,10,10,08,51,18.20
2015,10,10,08,52,18.20
2015,10,10,08,53,18.20
2015,10,10,08,54,18.20
2015,10,10,08,55,18.30
2015,10,10,08,56,18.20
2015,10,10,08,57,18.20
2015,10,10,08,58,18.30
2015,10,10,08,59,18.30
2015,10,10,09,00,18.30
2015,10,10,09,01,18.30
2015,10,10,09,02,18.30
2015,10,10,09,03,18.30
2015,10,10,09,04,18.30
2015,10,10,09,05,18.20
2015,10,10,09,06,18.20
2015,10,10,09,07,18.20
2015,10,10,09,08,18.20
2015,10,10,09,09,18.20
2015,10,10,09,10,18.20
2015,10,10,09,11,18.20
2015,10,10,09,12,18.10
2015,10,10,09,13,18.10
2015,10,10,09,14,18.10
2015,10,10,09,15,18.10
2015,10,10,09,16,18.00
2015,10,10,09,17,18.00
2015,10,10,09,18,18.00
2015,10,10,09,19,18.00
2015,10,10,09,20,18.00
2015,10,10,09,21,17.90
2015,10,10,09,22,17.90
2015,10,10,09,23,17.90
2015,10,10,09,24,17.90
2015,10,10,09,25,17.90
2015,10,10,09,26,17.90
2015,10,10,09,27,17.90
2015,10,10,09,28,17.90
2015,10,10,09,29,17.80
2015,10,10,09,30,17.80
2015,10,10,09,31,17.80
2015,10,10,09,32,17.80
2015,10,10,09,33,17.80
2015,10,10,09,34,17.80
2015,10,10,09,35,17.80
2015,10,10,09,36,17.80
2015,10,10,09,37,17.80
2015,10,10,09,38,17.70
2015,10,10,09,39,17.70
2015,10,10,09,40,17.70
2015,10,10,09,41,17.70
2015,10,10,09,42,17.70
2015,10,10,09,43,17.70
2015,10,10,09,44,17.70
2015,10,10,09,45,17.60
2015,10,10,09,46,17.60
2015,10,10,09,47,17.60
2015,10,10,09,48,17.50
2015,10,10,09,49,17.40
2015,10,10,09,50,17.30
2015,10,10,09,51,17.30
2015,10,10,09,52,17.20
2015,10,10,09,53,17.20
2015,10,10,09,54,17.10
2015,10,10,09,55,17.10
2015,10,10,09,56,17.10
2015,10,10,09,57,17.00
2015,10,10,09,58,17.00
2015,10,10,09,59,17.00
2015,10,10,10,00,17.00
2015,10,10,10,01,17.00
2015,10,10,10,02,16.90
2015,10,10,10,03,16.90
2015,10,10,10,04,16.90
2015,10,10,10,05,16.90
2015,10,10,10,06,16.90
2015,10,10,10,07,16.90
2015,10,10,10,08,16.80
2015,10,10,10,09,16.80
2015,10,10,10,10,16.80
2015,10,10,10,11,16.80
2015,10,10,10,12,16.80
2015,10,10,10,13,16.80
2015,10,10,10,14,16.80
2015,10,10,10,15,16.80
2015,10,10,10,16,16.80
2015,10,10,10,17,16.80
2015,10,10,10,18,16.70
2015,10,10,10,19,16.70
2015,10,10,10,20,16.70
2015,10,10,10,21,16.70
2015,10,10,10,22,16.70
2015,10,10,10,23,16.70
2015,10,10,10,24,16.60
2015,10,10,10,25,16.60
2015,10,10,10,26,16.60
2015,10,10,10,27,16.60
2015,10,10,10,28,16.60
2015,10,10,10,29,16.60
2015,10,10,10,30,16.60
2015,10,10,10,31,16.60
2015,10,10,10,32,16.50
2015,10,10,10,33,16.50
2015,10,10,10,34,16.50
2015,10,10,10,35,16.50
2015,10,10,10,36,16.50
2015,10,10,10,37,16.50
2015,10,10,10,38,16.40
2015,10,10,10,39,16.40
2015,10,10,10,40,16.40
2015,10,10,10,41,16.40
2015,10,10,10,42,16.40
2015,10,10,10,43,16.40
2015,10,10,10,44,16.40
2015,10,10,10,45,16.40
2015,10,10,10,46,16.40
2015,10,10,10,47,16.40
2015,10,10,10,48,16.30
2015,10,10,10,49,16.30
2015,10,10,10,50,16.30
2015,10,10,10,51,16.30
2015,10,10,10,52,16.40
2015,10,10,10,53,16.40
2015,10,10,10,54,16.40
2015,10,10,10,55,16.40
2015,10,10,10,56,16.40
2015,10,10,10,57,16.40
2015,10,10,10,58,16.40
2015,10,10,10,59,16.40
2015,10,10,11,00,16.40
2015,10,10,11,01,16.40
2015,10,10,11,02,16.40
2015,10,10,11,03,16.40
2015,10,10,11,04,16.40
2015,10,10,11,05,16.50
2015,10,10,11,06,16.50
2015,10,10,11,07,16.50
2015,10,10,11,08,16.50
2015,10,10,11,09,16.50
2015,10,10,11,10,16.50
2015,10,10,11,11,16.60
2015,10,10,11,12,16.60
2015,10,10,11,13,16.70
2015,10,10,11,14,16.70
2015,10,10,11,15,16.80
2015,10,10,11,16,16.80
2015,10,10,11,17,16.90
2015,10,10,11,18,16.90
2015,10,10,11,19,16.90
2015,10,10,11,20,17.00
2015,10,10,11,21,17.00
2015,10,10,11,22,17.00
2015,10,10,11,23,17.00
2015,10,10,11,24,17.00
2015,10,10,11,25,17.10
2015,10,10,11,26,17.10
2015,10,10,11,27,17.10
2015,10,10,11,28,17.10
2015,10,10,11,29,17.10
2015,10,10,11,30,17.10
2015,10,10,11,31,17.00
2015,10,10,11,32,17.00
2015,10,10,11,33,17.00
2015,10,10,11,34,16.90
2015,10,10,11,35,16.90
2015,10,10,11,36,16.90
2015,10,10,11,37,16.90
2015,10,10,11,38,16.90
2015,10,10,11,39,16.90
2015,10,10,11,40,16.80
2015,10,10,11,41,16.80
2015,10,10,11,42,16.80
2015,10,10,11,43,16.80
2015,10,10,11,44,16.80
2015,10,10,11,45,16.80
2015,10,10,11,46,16.80
2015,10,10,11,47,16.80
2015,10,10,11,48,16.80
2015,10,10,11,49,16.80
2015,10,10,11,50,16.80
2015,10,10,11,51,16.80
2015,10,10,11,52,16.80
2015,10,10,11,53,16.80
2015,10,10,11,54,16.70
2015,10,10,11,55,16.70
2015,10,10,11,56,16.70
2015,10,10,11,57,16.70
2015,10,10,11,58,16.70
2015,10,10,11,59,16.70
2015,10,10,12,00,16.60
2015,10,10,12,01,16.60
2015,10,10,12,02,16.60
2015,10,10,12,03,16.60
2015,10,10,12,04,16.60
2015,10,10,12,05,16.60
2015,10,10,12,06,16.50
2015,10,10,12,07,16.50
2015,10,10,12,08,16.50
2015,10,10,12,09,16.50
2015,10,10,12,10,16.50
2015,10,10,12,11,16.40
2015,10,10,12,12,16.40
2015,10,10,12,13,16.40
2015,10,10,12,14,16.40
2015,10,10,12,15,16.40
2015,10,10,12,16,16.30
2015,10,10,12,17,16.30
2015,10,10,12,18,16.20
2015,10,10,12,19,16.20
2015,10,10,12,20,16.20
2015,10,10,12,21,16.20
2015,10,10,12,22,16.20
2015,10,10,12,23,16.20
2015,10,10,12,24,16.20
2015,10,10,12,25,16.20
2015,10,10,12,26,16.20
2015,10,10,12,27,16.20
2015,10,10,12,28,16.20
2015,10,10,12,29,16.20
2015,10,10,12,30,16.20
2015,10,10,12,31,16.20
2015,10,10,12,32,16.20
2015,10,10,12,33,16.20
2015,10,10,12,34,16.20
2015,10,10,12,35,16.20
2015,10,10,12,36,16.20
2015,10,10,12,37,16.20
2015,10,10,12,38,16.20
2015,10,10,12,39,16.20
2015,10,10,12,40,16.20
2015,10,10,12,41,16.20
2015,10,10,12,42,16.30
2015,10,10,12,43,16.30
2015,10,10,12,44,16.30
2015,10,10,12,45,16.30
2015,10,10,12,46,16.30
2015,10,10,12,47,16.30
2015,10,10,12,48,16.30
2015,10,10,12,49,16.30
2015,10,10,12,50,16.30
2015,10,10,12,51,16.30
2015,10,10,12,52,16.30
2015,10,10,12,53,16.30
2015,10,10,12,54,16.30
2015,10,10,12,55,16.30
2015,10,10,12,56,16.40
2015,10,10,12,57,16.40
2015,10,10,12,58,16.40
2015,10,10,12,59,16.40
2015,10,10,13,00,16.40
2015,10,10,13,01,16.40
2015,10,10,13,02,16.40
2015,10,10,13,03,16.40
2015,10,10,13,04,16.40
2015,10,10,13,05,16.30
2015,10,10,13,06,16.30
2015,10,10,13,07,16.30
2015,10,10,13,08,16.30
2015,10,10,13,09,16.30
2015,10,10,13,10,16.20
2015,10,10,13,11,16.20
2015,10,10,13,12,16.20
2015,10,10,13,13,16.20
2015,10,10,13,14,16.10
2015,10,10,13,15,16.10
2015,10,10,13,16,16.10
2015,10,10,13,17,16.00
2015,10,10,13,18,16.00
2015,10,10,13,19,15.90
2015,10,10,13,20,15.90
2015,10,10,13,21,15.90
2015,10,10,13,22,15.80
2015,10,10,13,23,15.80
2015,10,10,13,24,15.80
2015,10,10,13,25,15.80
2015,10,10,13,26,15.70
2015,10,10,13,27,15.70
2015,10,10,13,28,15.70
2015,10,10,13,29,15.70
2015,10,10,13,30,15.60
2015,10,10,13,31,15.60
2015,10,10,13,32,15.60
2015,10,10,13,33,15.60
2015,10,10,13,34,15.50
2015,10,10,13,35,15.50
2015,10,10,13,36,15.50
2015,10,10,13,37,15.50
2015,10,10,13,38,15.50
2015,10,10,13,39,15.40
2015,10,10,13,40,15.40
2015,10,10,13,41,15.40
2015,10,10,13,42,15.40
2015,10,10,13,43,15.50
2015,10,10,13,44,15.50
2015,10,10,13,45,15.50
2015,10,10,13,46,15.50
2015,10,10,13,47,15.50
2015,10,10,13,48,15.50
2015,10,10,13,49,15.50
2015,10,10,13,50,15.50
2015,10,10,13,51,15.50
2015,10,10,13,52,15.50
2015,10,10,13,53,15.50
2015,10,10,13,54,15.50
2015,10,10,13,55,15.50
2015,10,10,13,56,15.50
2015,10,10,13,57,15.50
2015,10,10,13,58,15.50
2015,10,10,13,59,15.50
2015,10,10,14,00,15.50
2015,10,10,14,01,15.50
2015,10,10,14,02,15.50
2015,10,10,14,03,15.50
2015,10,10,14,04,15.40
2015,10,10,14,05,15.40
2015,10,10,14,06,15.40
2015,10,10,14,07,15.40
2015,10,10,14,08,15.40
2015,10,10,14,09,15.40
2015,10,10,14,10,15.40
2015,10,10,14,11,15.40
2015,10,10,14,12,15.40
2015,10,10,14,13,15.30
2015,10,10,14,14,15.30
2015,10,10,14,15,15.30
2015,10,10,14,16,15.40
2015,10,10,14,17,15.40
2015,10,10,14,18,15.40
2015,10,10,14,19,15.40
2015,10,10,14,20,15.40
2015,10,10,14,21,15.40
2015,10,10,14,22,15.40
2015,10,10,14,23,15.40
2015,10,10,14,24,15.40
2015,10,10,14,25,15.40
2015,10,10,14,26,15.40
2015,10,10,14,27,15.40
2015,10,10,14,28,15.40
2015,10,10,14,29,15.40
2015,10,10,14,30,15.40
2015,10,10,14,31,15.40
2015,10,10,14,32,15.40
2015,10,10,14,33,15.40
2015,10,10,14,34,15.40
2015,10,10,14,35,15.50
2015,10,10,14,36,15.50
2015,10,10,14,37,15.50
2015,10,10,14,38,15.40
2015,10,10,14,39,15.50
2015,10,10,14,40,15.50
2015,10,10,14,41,15.50
2015,10,10,14,42,15.50
2015,10,10,14,43,15.50
2015,10,10,14,44,15.50
2015,10,10,14,45,15.60
2015,10,10,14,46,15.60
2015,10,10,14,47,15.60
2015,10,10,14,48,15.60
2015,10,10,14,49,15.60
2015,10,10,14,50,15.60
2015,10,10,14,51,15.60
2015,10,10,14,52,15.60
2015,10,10,14,53,15.70
2015,10,10,14,54,15.70
2015,10,10,14,55,15.70
2015,10,10,14,56,15.70
2015,10,10,14,57,15.80
2015,10,10,14,58,15.80
2015,10,10,14,59,15.80
2015,10,10,15,00,15.90
2015,10,10,15,01,16.00
2015,10,10,15,02,16.10
2015,10,10,15,03,16.20
2015,10,10,15,04,16.30
2015,10,10,15,05,16.30
2015,10,10,15,06,16.40
2015,10,10,15,07,16.40
2015,10,10,15,08,16.40
2015,10,10,15,09,16.30
2015,10,10,15,10,16.30
2015,10,10,15,11,16.30
2015,10,10,15,12,16.30
2015,10,10,15,13,16.30
2015,10,10,15,14,16.30
2015,10,10,15,15,16.20
2015,10,10,15,16,16.20
2015,10,10,15,17,16.20
2015,10,10,15,18,16.20
2015,10,10,15,19,16.20
2015,10,10,15,20,16.20
2015,10,10,15,21,16.20
2015,10,10,15,22,16.30
2015,10,10,15,23,16.40
2015,10,10,15,24,16.50
2015,10,10,15,25,16.50
2015,10,10,15,26,16.60
2015,10,10,15,27,16.70
2015,10,10,15,28,16.80
2015,10,10,15,29,16.80
2015,10,10,15,30,16.80
2015,10,10,15,31,16.90
2015,10,10,15,32,16.90
2015,10,10,15,33,16.90
2015,10,10,15,34,17.00
2015,10,10,15,35,17.00
2015,10,10,15,36,17.00
2015,10,10,15,37,17.10
2015,10,10,15,38,17.20
2015,10,10,15,39,17.20
2015,10,10,15,40,17.30
2015,10,10,15,41,17.30
2015,10,10,15,42,17.30
2015,10,10,15,43,17.30
2015,10,10,15,44,17.20
2015,10,10,15,45,17.10
2015,10,10,15,46,17.10
2015,10,10,15,47,17.10
2015,10,10,15,48,17.10
2015,10,10,15,49,17.20
2015,10,10,15,50,17.30
2015,10,10,15,51,17.30
2015,10,10,15,52,17.30
2015,10,10,15,53,17.20
2015,10,10,15,54,17.20
2015,10,10,15,55,17.10
2015,10,10,15,56,17.10
2015,10,10,15,57,17.00
2015,10,10,15,58,17.00
2015,10,10,15,59,16.90
2015,10,10,16,00,17.00
2015,10,10,16,01,17.00
2015,10,10,16,02,17.00
2015,10,10,16,03,17.00
2015,10,10,16,04,16.90
2015,10,10,16,05,16.90
2015,10,10,16,06,16.90
2015,10,10,16,07,16.90
2015,10,10,16,08,16.80
2015,10,10,16,09,16.80
2015,10,10,16,10,16.70
2015,10,10,16,11,16.70
2015,10,10,16,12,16.70
2015,10,10,16,13,16.80
2015,10,10,16,14,16.80
2015,10,10,16,15,16.80
2015,10,10,16,16,16.90
2015,10,10,16,17,16.90
2015,10,10,16,18,16.90
2015,10,10,16,19,17.00
2015,10,10,16,20,17.00
2015,10,10,16,21,17.00
2015,10,10,16,22,17.00
2015,10,10,16,23,17.00
2015,10,10,16,24,17.00
2015,10,10,16,25,17.00
2015,10,10,16,26,17.00
2015,10,10,16,27,16.90
2015,10,10,16,28,16.90
2015,10,10,16,29,16.90
2015,10,10,16,30,16.90
2015,10,10,16,31,16.90
2015,10,10,16,32,16.90
2015,10,10,16,33,16.90
2015,10,10,16,34,16.90
2015,10,10,16,35,16.90
2015,10,10,16,36,16.90
2015,10,10,16,37,16.90
2015,10,10,16,38,16.90
2015,10,10,16,39,16.90
2015,10,10,16,40,16.90
2015,10,10,16,41,16.90
2015,10,10,16,42,17.00
2015,10,10,16,43,17.10
2015,10,10,16,44,17.20
2015,10,10,16,45,17.40
2015,10,10,16,46,17.60
2015,10,10,16,47,17.60
2015,10,10,16,48,17.60
2015,10,10,16,49,17.70
2015,10,10,16,50,17.70
2015,10,10,16,51,17.70
2015,10,10,16,52,17.60
2015,10,10,16,53,17.50
2015,10,10,16,54,17.40
2015,10,10,16,55,17.40
2015,10,10,16,56,17.30
2015,10,10,16,57,17.20
2015,10,10,16,58,17.20
2015,10,10,16,59,17.10
2015,10,10,17,00,17.10
2015,10,10,17,01,17.10
2015,10,10,17,02,17.10
2015,10,10,17,03,17.20
2015,10,10,17,04,17.20
2015,10,10,17,05,17.40
2015,10,10,17,06,17.50
2015,10,10,17,07,17.60
2015,10,10,17,08,17.70
2015,10,10,17,09,17.80
2015,10,10,17,10,17.80
2015,10,10,17,11,17.70
2015,10,10,17,12,17.60
2015,10,10,17,13,17.50
2015,10,10,17,14,17.40
2015,10,10,17,15,17.30
2015,10,10,17,16,17.20
2015,10,10,17,17,17.10
2015,10,10,17,18,17.10
2015,10,10,17,19,17.10